Tracking 35275 objects as of 8-Sep-2026
HD Live streaming from Space Station
objects crossing your sky now

SL-12 DEB


SL-12 DEB is no longer on orbit


NORAD ID: 34802
Int'l Code: 1991-025S
Launch date: April 4, 1991
Source: Commonwealth of Independent States (former USSR) (CIS)
Launch site: TYURATAM MISSILE AND SPACE COMPLEX (TTMTR)
Decay date: 2009-05-13

Note: This is SATELLITE DEBRIS
Your satellite tracking list
Your tracking list is empty




NASA's NSSDC Master Catalog

Two Line Element Set (TLE):
1 34802U 91025S   09131.65979435 -.00000906  28633-5  00000+0 0  9998
2 34802 065.3424 091.9393 1632542 033.7542 043.6719 12.43008497  1890
Source of the keplerian elements: AFSPC